Location: Boiro
(42.6475°N, 8.8834°W)
Time: 12:37:17
(UTC+01:00)

Altair - Pass Details

Date: 01 December 2021
Orbit: 1501 x 1683 km, 47.2° (Epoch: 21 January)

Event Time Altitude Azimuth Distance (km) Brightness Sun altitude
Rises 19:33:48 0° 261° (W) 4,734 11.9 -16.2°
Reaches altitude 10° 19:36:55 10° 263° (W) 3,729 10.8 -16.8°
Maximum altitude 19:46:18 72° 348° (NNW) 1,584 7.5 -18.5°
Enters shadow 19:51:54 27° 67° (ENE) 2,562 8.1 -19.5°
